| time (UTC) | temp F | wind direction | speed MPH | gust MPH | rain 1hr in | rain 24hr in | rain mn in | humidity % | barometer mb |
| 20260510055527 | 66 | 141 | 1.0 | 3.0 | 0.00 | 0.00 | 0.00 | 70 | 1009.6 |
| 20260510054615 | 66 | 146 | 1.0 | 2.0 | 0.00 | 0.00 | 0.00 | 68 | 1009.5 |
| 20260510053528 | 66 | 140 | 0.0 | 2.0 | 0.00 | 0.00 | 0.00 | 67 | 1009.3 |
| 20260510052541 | 66 | 131 | 1.0 | 3.0 | 0.00 | 0.00 | 0.00 | 65 | 1009.1 |
| 20260510051526 | 67 | 131 | 1.0 | 3.0 | 0.00 | 0.00 | 0.00 | 64 | 1009.1 |
| 20260510050525 | 67 | 134 | 2.0 | 6.0 | 0.00 | 0.00 | 0.00 | 63 | 1009.0 |
| 20260510045531 | 67 | 140 | 1.0 | 3.0 | 0.00 | 0.00 | 0.00 | 62 | 1009.0 |
| 20260510044533 | 68 | 155 | 1.0 | 3.0 | 0.00 | 0.00 | 0.00 | 61 | 1009.1 |
| 20260510043544 | 68 | 145 | 1.0 | 3.0 | 0.00 | 0.00 | 0.00 | 59 | 1009.2 |
| 20260510042521 | 69 | 135 | 1.0 | 2.0 | 0.00 | 0.00 | 0.00 | 57 | 1009.3 |
| 20260510041526 | 69 | 139 | 2.0 | 6.0 | 0.00 | 0.00 | 0.00 | 57 | 1009.3 |
| 20260510040525 | 70 | 135 | 2.0 | 6.0 | 0.00 | 0.00 | 0.00 | 56 | 1009.4 |
| 20260510035524 | 70 | 133 | 2.0 | 6.0 | 0.00 | 0.00 | 0.00 | 56 | 1009.3 |
| 20260510034519 | 70 | 121 | 3.0 | 6.0 | 0.00 | 0.00 | 0.00 | 55 | 1009.4 |
| 20260510033531 | 70 | 103 | 3.0 | 4.0 | 0.00 | 0.00 | 0.00 | 55 | 1009.5 |
| 20260510032529 | 71 | 130 | 3.0 | 7.0 | 0.00 | 0.00 | 0.00 | 55 | 1009.5 |
| 20260510031527 | 71 | 129 | 2.0 | 4.0 | 0.00 | 0.00 | 0.00 | 55 | 1009.6 |
| 20260510030516 | 72 | 137 | 1.0 | 4.0 | 0.00 | 0.00 | 0.00 | 55 | 1009.4 |
| 20260510025526 | 72 | 98 | 1.0 | 2.0 | 0.00 | 0.00 | 0.00 | 55 | 1009.3 |
| 20260510024542 | 73 | 126 | 1.0 | 3.0 | 0.00 | 0.00 | 0.00 | 55 | 1009.2 |
| 20260510023516 | 73 | 138 | 2.0 | 4.0 | 0.00 | 0.00 | 0.00 | 55 | 1009.1 |
| 20260510022527 | 74 | 107 | 2.0 | 4.0 | 0.00 | 0.00 | 0.00 | 54 | 1009.0 |
| 20260510021522 | 75 | 116 | 3.0 | 4.0 | 0.00 | 0.00 | 0.00 | 54 | 1008.9 |
| 20260510020518 | 75 | 107 | 3.0 | 4.0 | 0.00 | 0.00 | 0.00 | 54 | 1008.7 |
| 20260510015528 | 76 | 111 | 3.0 | 7.0 | 0.00 | 0.00 | 0.00 | 53 | 1008.6 |
| 20260510014524 | 77 | 116 | 4.0 | 7.0 | 0.00 | 0.00 | 0.00 | 51 | 1008.5 |
| 20260510013519 | 77 | 119 | 4.0 | 8.0 | 0.00 | 0.00 | 0.00 | 51 | 1008.4 |
| 20260510012550 | 78 | 114 | 4.0 | 6.0 | 0.00 | 0.00 | 0.00 | 50 | 1008.4 |
| 20260510011526 | 79 | 128 | 4.0 | 7.0 | 0.00 | 0.00 | 0.00 | 49 | 1008.2 |
| 20260510010521 | 81 | 113 | 4.0 | 7.0 | 0.00 | 0.00 | 0.00 | 46 | 1008.1 |
| 20260510005517 | 82 | 121 | 3.0 | 8.0 | 0.00 | 0.00 | 0.00 | 43 | 1008.0 |
| 20260510004528 | 84 | 118 | 2.0 | 6.0 | 0.00 | 0.00 | 0.00 | 35 | 1007.9 |
| 20260510003523 | 84 | 116 | 3.0 | 6.0 | 0.00 | 0.00 | 0.00 | 34 | 1007.9 |
| 20260510002539 | 85 | 135 | 1.0 | 2.0 | 0.00 | 0.00 | 0.00 | 34 | 1007.9 |
| 20260510001530 | 87 | 140 | 1.0 | 3.0 | 0.00 | 0.00 | 0.00 | 32 | 1007.8 |
| 20260510000546 | 89 | 162 | 1.0 | 3.0 | 0.00 | 0.00 | 0.00 | 30 | 1007.9 |
| 20260509235521 | 90 | 88 | 0.0 | 2.0 | 0.00 | 0.00 | 0.00 | 30 | 1007.9 |
| 20260509234517 | 98 | 61 | 2.0 | 4.0 | 0.00 | 0.00 | 0.00 | 30 | 1007.8 |
| 20260509233527 | 98 | 125 | 1.0 | 4.0 | 0.00 | 0.00 | 0.00 | 30 | 1008.0 |
| 20260509232543 | 98 | 127 | 2.0 | 4.0 | 0.00 | 0.00 | 0.00 | 30 | 1007.9 |
| 20260509231519 | 98 | 128 | 2.0 | 4.0 | 0.00 | 0.00 | 0.00 | 30 | 1007.8 |
| 20260509230530 | 99 | 120 | 3.0 | 8.0 | 0.00 | 0.00 | 0.00 | 29 | 1007.9 |
| 20260509225526 | 99 | 88 | 2.0 | 4.0 | 0.00 | 0.00 | 0.00 | 30 | 1007.9 |
| 20260509224521 | 99 | 70 | 3.0 | 6.0 | 0.00 | 0.00 | 0.00 | 30 | 1007.9 |
| 20260509223517 | 98 | 77 | 3.0 | 6.0 | 0.00 | 0.00 | 0.00 | 31 | 1007.8 |
| 20260509222528 | 99 | 93 | 3.0 | 7.0 | 0.00 | 0.00 | 0.00 | 29 | 1007.9 |
| 20260509221524 | 99 | 79 | 3.0 | 7.0 | 0.00 | 0.00 | 0.00 | 30 | 1007.9 |
| 20260509220519 | 98 | 87 | 2.0 | 6.0 | 0.00 | 0.00 | 0.00 | 30 | 1007.9 |
| 20260509215530 | 98 | 60 | 3.0 | 8.0 | 0.00 | 0.00 | 0.00 | 31 | 1007.9 |
| 20260509214526 | 97 | 148 | 1.0 | 4.0 | 0.00 | 0.00 | 0.00 | 32 | 1008.1 |
| 20260509213521 | 97 | 120 | 3.0 | 7.0 | 0.00 | 0.00 | 0.00 | 31 | 1008.2 |
| 20260509212517 | 97 | 57 | 3.0 | 8.0 | 0.00 | 0.00 | 0.00 | 31 | 1008.2 |
| 20260509211528 | 97 | 124 | 3.0 | 8.0 | 0.00 | 0.00 | 0.00 | 31 | 1008.4 |
| 20260509210523 | 97 | 87 | 4.0 | 9.0 | 0.00 | 0.00 | 0.00 | 31 | 1008.5 |
| 20260509205519 | 98 | 121 | 3.0 | 8.0 | 0.00 | 0.00 | 0.00 | 31 | 1008.6 |
| 20260509204530 | 98 | 107 | 4.0 | 9.0 | 0.00 | 0.00 | 0.00 | 31 | 1008.9 |
| 20260509203526 | 97 | 64 | 2.0 | 6.0 | 0.00 | 0.07 | 0.00 | 31 | 1008.9 |
| 20260509202522 | 97 | 148 | 1.0 | 6.0 | 0.00 | 0.13 | 0.00 | 30 | 1009.0 |
| 20260509201517 | 97 | 93 | 2.0 | 7.0 | 0.00 | 0.17 | 0.00 | 31 | 1009.2 |
| 20260509200648 | 97 | 67 | 2.0 | 6.0 | 0.00 | 0.17 | 0.00 | 32 | 1009.2 |
| 20260509195544 | 97 | 267 | 2.0 | 3.0 | 0.00 | 0.17 | 0.00 | 32 | 1009.3 |
| 20260509194519 | 96 | 14 | 2.0 | 7.0 | 0.00 | 0.17 | 0.00 | 34 | 1009.5 |
| 20260509193529 | 96 | 128 | 1.0 | 3.0 | 0.00 | 0.17 | 0.00 | 31 | 1009.6 |
| 20260509192525 | 96 | 226 | 2.0 | 6.0 | 0.00 | 0.17 | 0.00 | 33 | 1009.6 |
| 20260509191521 | 96 | 135 | 2.0 | 9.0 | 0.00 | 0.17 | 0.00 | 33 | 1009.6 |
| 20260509190516 | 96 | 265 | 2.0 | 6.0 | 0.00 | 0.17 | 0.00 | 34 | 1009.7 |
| 20260509185527 | 95 | 258 | 2.0 | 6.0 | 0.00 | 0.17 | 0.00 | 35 | 1009.9 |
| 20260509184522 | 94 | 253 | 3.0 | 7.0 | 0.00 | 0.17 | 0.00 | 35 | 1010.0 |
| 20260509183518 | 94 | 235 | 3.0 | 7.0 | 0.00 | 0.17 | 0.00 | 34 | 1010.0 |
| 20260509182529 | 95 | 263 | 3.0 | 7.0 | 0.00 | 0.17 | 0.00 | 35 | 1010.0 |
| 20260509181525 | 94 | 273 | 2.0 | 6.0 | 0.00 | 0.17 | 0.00 | 37 | 1010.1 |
| 20260509180520 | 93 | 254 | 3.0 | 6.0 | 0.00 | 0.17 | 0.00 | 37 | 1010.3 |
| 20260509175515 | 93 | 258 | 4.0 | 9.0 | 0.00 | 0.17 | 0.00 | 37 | 1010.3 |
| 20260509174526 | 92 | 252 | 4.0 | 9.0 | 0.00 | 0.17 | 0.00 | 37 | 1010.5 |
| 20260509173522 | 92 | 259 | 3.0 | 9.0 | 0.00 | 0.17 | 0.00 | 38 | 1010.6 |
| 20260509172518 | 91 | 283 | 4.0 | 9.0 | 0.00 | 0.17 | 0.00 | 40 | 1010.7 |
| 20260509171528 | 91 | 262 | 3.0 | 10.0 | 0.00 | 0.17 | 0.00 | 39 | 1010.8 |
| 20260509170524 | 91 | 268 | 4.0 | 10.0 | 0.00 | 0.17 | 0.00 | 40 | 1010.8 |
| 20260509165540 | 91 | 269 | 5.0 | 10.0 | 0.00 | 0.17 | 0.00 | 40 | 1010.9 |
| 20260509164555 | 91 | 264 | 4.0 | 9.0 | 0.00 | 0.17 | 0.00 | 41 | 1010.9 |
| 20260509163526 | 90 | 277 | 2.0 | 7.0 | 0.00 | 0.17 | 0.00 | 41 | 1011.0 |
| 20260509162522 | 90 | 259 | 4.0 | 10.0 | 0.00 | 0.17 | 0.00 | 40 | 1010.9 |
| 20260509161518 | 89 | 264 | 4.0 | 9.0 | 0.00 | 0.17 | 0.00 | 41 | 1010.8 |
| 20260509160529 | 89 | 256 | 4.0 | 10.0 | 0.00 | 0.17 | 0.00 | 40 | 1010.8 |
| 20260509155525 | 88 | 239 | 4.0 | 9.0 | 0.00 | 0.17 | 0.00 | 42 | 1010.9 |
| 20260509154520 | 87 | 263 | 5.0 | 10.0 | 0.00 | 0.17 | 0.00 | 43 | 1010.9 |
| 20260509153516 | 87 | 262 | 4.0 | 10.0 | 0.00 | 0.17 | 0.00 | 44 | 1010.8 |
| 20260509152527 | 87 | 265 | 5.0 | 10.0 | 0.00 | 0.17 | 0.00 | 45 | 1010.8 |
| 20260509151523 | 86 | 287 | 3.0 | 7.0 | 0.00 | 0.17 | 0.00 | 48 | 1010.6 |
| 20260509150519 | 86 | 270 | 3.0 | 9.0 | 0.00 | 0.17 | 0.00 | 51 | 1010.7 |
| 20260509145530 | 85 | 278 | 2.0 | 8.0 | 0.00 | 0.17 | 0.00 | 52 | 1010.7 |
| 20260509144525 | 85 | 267 | 2.0 | 6.0 | 0.00 | 0.17 | 0.00 | 54 | 1010.9 |
| 20260509143520 | 85 | 260 | 2.0 | 7.0 | 0.00 | 0.17 | 0.00 | 53 | 1010.9 |
| 20260509142516 | 87 | 224 | 1.0 | 4.0 | 0.00 | 0.17 | 0.00 | 50 | 1011.0 |
| 20260509141527 | 92 | 255 | 1.0 | 4.0 | 0.00 | 0.17 | 0.00 | 45 | 1011.1 |
| 20260509140523 | 92 | 280 | 3.0 | 7.0 | 0.00 | 0.17 | 0.00 | 44 | 1011.0 |
| 20260509135538 | 96 | 270 | 3.0 | 8.0 | 0.00 | 0.17 | 0.00 | 40 | 1011.0 |
| 20260509134529 | 93 | 258 | 2.0 | 6.0 | 0.00 | 0.17 | 0.00 | 45 | 1010.8 |
| 20260509133525 | 91 | 272 | 2.0 | 4.0 | 0.00 | 0.17 | 0.00 | 49 | 1010.7 |
| 20260509132521 | 87 | 255 | 3.0 | 6.0 | 0.00 | 0.17 | 0.00 | 52 | 1010.6 |
| 20260509131537 | 87 | 266 | 4.0 | 9.0 | 0.00 | 0.17 | 0.00 | 54 | 1010.6 |
| 20260509130528 | 81 | 269 | 3.0 | 9.0 | 0.00 | 0.17 | 0.00 | 65 | 1010.5 |
| 20260509125604 | 76 | 267 | 1.0 | 2.0 | 0.00 | 0.17 | 0.00 | 75 | 1010.4 |
| 20260509124519 | 72 | 264 | 2.0 | 4.0 | 0.00 | 0.17 | 0.00 | 83 | 1010.4 |
| 20260509123515 | 71 | 238 | 1.0 | 2.0 | 0.00 | 0.17 | 0.00 | 87 | 1010.4 |
| 20260509122526 | 70 | 177 | 0.0 | 1.0 | 0.00 | 0.17 | 0.00 | 88 | 1010.3 |
| 20260509121522 | 69 | 0.0 | 0.0 | 0.00 | 0.17 | 0.00 | 90 | 1010.1 | |
| 20260509120517 | 68 | 177 | 0.0 | 1.0 | 0.00 | 0.17 | 0.00 | 91 | 1010.1 |
| 20260509115528 | 68 | 177 | 0.0 | 1.0 | 0.00 | 0.17 | 0.00 | 90 | 1010.1 |
| 20260509114524 | 68 | 175 | 0.0 | 1.0 | 0.00 | 0.17 | 0.00 | 91 | 1010.1 |
| 20260509113540 | 69 | 182 | 0.0 | 1.0 | 0.00 | 0.17 | 0.00 | 90 | 1010.0 |
| 20260509112515 | 69 | 182 | 0.0 | 1.0 | 0.00 | 0.17 | 0.00 | 88 | 1010.0 |
| 20260509111526 | 70 | 262 | 0.0 | 2.0 | 0.00 | 0.17 | 0.00 | 87 | 1010.0 |
| 20260509110521 | 70 | 242 | 2.0 | 4.0 | 0.00 | 0.17 | 0.00 | 89 | 1010.0 |
| 20260509105516 | 70 | 246 | 1.0 | 2.0 | 0.00 | 0.17 | 0.00 | 89 | 1010.0 |
| 20260509104527 | 70 | 265 | 1.0 | 2.0 | 0.00 | 0.17 | 0.00 | 89 | 1009.8 |
| 20260509103522 | 70 | 266 | 2.0 | 6.0 | 0.00 | 0.17 | 0.00 | 90 | 1009.9 |
| 20260509102518 | 70 | 270 | 3.0 | 8.0 | 0.00 | 0.17 | 0.00 | 91 | 1009.8 |
| 20260509101547 | 69 | 260 | 6.0 | 11.0 | 0.00 | 0.17 | 0.00 | 92 | 1009.5 |
| 20260509100543 | 69 | 191 | 1.0 | 4.0 | 0.00 | 0.17 | 0.00 | 92 | 1008.0 |
| 20260509095619 | 69 | 164 | 3.0 | 8.0 | 0.00 | 0.17 | 0.00 | 92 | 1007.2 |
| 20260509094529 | 69 | 163 | 4.0 | 13.0 | 0.00 | 0.17 | 0.00 | 91 | 1007.3 |
| 20260509093604 | 69 | 171 | 5.0 | 13.0 | 0.00 | 0.17 | 0.00 | 91 | 1007.3 |
| 20260509092520 | 69 | 157 | 4.0 | 13.0 | 0.00 | 0.17 | 0.00 | 91 | 1007.4 |
| 20260509091530 | 69 | 185 | 5.0 | 13.0 | 0.00 | 0.17 | 0.00 | 91 | 1007.4 |
| 20260509090525 | 69 | 168 | 4.0 | 11.0 | 0.00 | 0.17 | 0.00 | 92 | 1007.4 |
| 20260509085541 | 69 | 161 | 4.0 | 9.0 | 0.00 | 0.17 | 0.00 | 91 | 1007.7 |
| 20260509084544 | 69 | 160 | 5.0 | 14.0 | 0.00 | 0.17 | 0.00 | 91 | 1008.0 |
| 20260509083519 | 69 | 155 | 4.0 | 8.0 | 0.00 | 0.17 | 0.00 | 91 | 1008.6 |
| 20260509082529 | 69 | 157 | 3.0 | 8.0 | 0.00 | 0.17 | 0.00 | 91 | 1008.9 |
| 20260509081522 | 69 | 161 | 4.0 | 11.0 | 0.00 | 0.17 | 0.00 | 91 | 1009.3 |
| 20260509080518 | 69 | 167 | 4.0 | 8.0 | 0.00 | 0.17 | 0.00 | 90 | 1010.0 |
| 20260509075528 | 69 | 156 | 2.0 | 6.0 | 0.00 | 0.17 | 0.00 | 90 | 1010.3 |
| 20260509074524 | 70 | 163 | 2.0 | 4.0 | 0.00 | 0.17 | 0.00 | 89 | 1010.8 |
| 20260509073525 | 70 | 202 | 1.0 | 4.0 | 0.00 | 0.17 | 0.00 | 89 | 1011.5 |
| 20260509072544 | 70 | 245 | 1.0 | 3.0 | 0.00 | 0.17 | 0.00 | 89 | 1011.4 |
| 20260509071519 | 70 | 239 | 2.0 | 3.0 | 0.00 | 0.17 | 0.00 | 88 | 1011.4 |
| 20260509070537 | 70 | 256 | 2.0 | 3.0 | 0.00 | 0.17 | 0.00 | 88 | 1011.6 |
| 20260509065517 | 70 | 239 | 0.0 | 2.0 | 0.00 | 0.17 | 0.00 | 89 | 1011.5 |
| 20260509064552 | 70 | 166 | 0.0 | 1.0 | 0.00 | 0.17 | 0.00 | 90 | 1011.4 |
| 20260509063529 | 70 | 166 | 0.0 | 1.0 | 0.00 | 0.17 | 0.00 | 89 | 1011.5 |
| 20260509062552 | 69 | 166 | 0.0 | 1.0 | 0.00 | 0.17 | 0.00 | 89 | 1011.4 |
| 20260509061544 | 69 | 176 | 0.0 | 2.0 | 0.00 | 0.17 | 0.00 | 89 | 1011.3 |
| 20260509060532 | 69 | 236 | 0.0 | 2.0 | 0.00 | 0.17 | 0.00 | 88 | 1011.4 |